Location: Trebic
(49.2170°N, 15.8830°E)
Time: 06:43:16
(UTC+02:00)

Transit 4A - Pass Details

Date: 03 September 2019
Orbit: 865 x 980 km, 66.8° (Epoch: 18 September)

Event Time Altitude Azimuth Distance (km) Brightness Sun altitude
Rises 20:02:28 0° 290° (WNW) 3,678 14.1 -5.0°
Reaches altitude 10° 20:06:09 10° 310° (NW) 2,720 11.7 -5.6°
Maximum altitude 20:10:04 17° 349° (N) 2,256 10.3 -6.2°
Drops below altitude 10° 20:13:57 10° 27° (NNE) 2,684 10.2 -6.8°
Sets 20:17:34 0° 48° (NE) 3,607 10.7 -7.3°
